Darstellungsparameter: Aktuell verwendete Einstellungen:
Skalierung der Graphiken ... ?
xyx+y,   Skalierungsfaktor:      Skalierung: Modus: x, Faktor: 1
Darstellungszeitraum ... ?
Vom - - bis: - -   Zeitraum: 23.05.2020 - 23.05.2020
Min/Max/Avg-Anzeige ... ?
Zeige MMA aktuell
Zeige MMA Monat
Zeige MMA alles
Zeige --A aktuell
Zeige --A Monat
Zeige --A alles
Keine MMA-Anzeige
MMA:
Average (ber die Originaldaten)
MMA-Basis: 23.05.2020 - 23.05.2020
Quicknavigation für Darstellung... ?
Tage:      1T, 2T, 3T, 5T -1T -2T -3T -5T +1T +2T +3T +5T
Wochen: 1W, 2W, 3W -1W -2W -3W +1W +2W +3W
Monate: 1M, 3M, 6M -1M -3M -6M +1M +3M +6M
Jahre:    1J, 3J, 5J, 10J -1J -3J -5J -10J +1J +3J +5J +10J
Nutze für die Darstellung ... ?
Originaldaten oder Mittelwerte auf ...
Stundenbasis Tagesbasis Wochenbasis
Monatsbasis Jahresbasis      Datenbasis: Original-Daten
Darstellen als:
Statistik (Auto) Statistik J:M      Darstellung:
Zur Graphik,    zurück zur Übersicht aller Sensoren.
 
Tabellarische Datenbersicht: ?
 
Sensor: Nr:Datum:Temp:Abs-Feuchte:Windchill:Wind:
Aussen-T/F 1 23-05-2020 00:00:00 16.8 C 13.44 g/m*3 16.8 C 1.6 km/h
2 23-05-2020 00:05:00 16.8 C 13.44 g/m*3 16.8 C 3.2 km/h
3 23-05-2020 00:10:00 16.8 C 13.44 g/m*3 16.8 C 3.2 km/h
4 23-05-2020 00:15:00 16.8 C 13.58 g/m*3 16.8 C 3.2 km/h
5 23-05-2020 00:20:00 16.7 C 13.5 g/m*3 16.7 C 1.6 km/h
6 23-05-2020 00:25:00 16.7 C 13.5 g/m*3 16.7 C 0 km/h
7 23-05-2020 00:30:00 16.7 C 13.36 g/m*3 16.7 C 3.2 km/h
8 23-05-2020 00:35:00 16.7 C 13.5 g/m*3 16.7 C 1.6 km/h
9 23-05-2020 00:40:00 16.6 C 13.42 g/m*3 16.6 C 3.2 km/h
10 23-05-2020 00:45:00 16.6 C 13.42 g/m*3 16.6 C 0 km/h
11 23-05-2020 00:50:00 16.6 C 13.42 g/m*3 16.6 C 0 km/h
12 23-05-2020 00:55:00 16.6 C 13.42 g/m*3 16.6 C 1.6 km/h
13 23-05-2020 01:00:00 16.6 C 13.42 g/m*3 16.6 C 0 km/h
14 23-05-2020 01:05:00 16.6 C 13.42 g/m*3 16.6 C 1.6 km/h
15 23-05-2020 01:10:00 16.5 C 13.34 g/m*3 16.5 C 0 km/h
16 23-05-2020 01:15:00 16.6 C 13.42 g/m*3 16.6 C 0 km/h
17 23-05-2020 01:20:00 16.6 C 13.56 g/m*3 16.6 C 0 km/h
18 23-05-2020 01:25:00 16.6 C 13.42 g/m*3 16.6 C 3.2 km/h
19 23-05-2020 01:30:00 16.5 C 13.34 g/m*3 16.5 C 0 km/h
20 23-05-2020 01:35:00 16.3 C 13.18 g/m*3 16.3 C 1.6 km/h
21 23-05-2020 01:40:00 15.9 C 12.73 g/m*3 15.9 C 3.2 km/h
22 23-05-2020 01:45:00 15.4 C 12.09 g/m*3 15.4 C 6.4 km/h
23 23-05-2020 01:50:00 15.1 C 11.87 g/m*3 15.1 C 3.2 km/h
24 23-05-2020 01:55:00 14.8 C 11.78 g/m*3 14.8 C 3.2 km/h
25 23-05-2020 02:00:00 14.7 C 11.71 g/m*3 14.7 C 3.2 km/h
Sensor: Nr:Datum:Temp:Abs-Feuchte:Windchill:Wind:
Aussen-T/F 26 23-05-2020 02:05:00 14.5 C 11.57 g/m*3 14.5 C 4.8 km/h
27 23-05-2020 02:10:00 14.3 C 11.43 g/m*3 14.3 C 8.1 km/h
28 23-05-2020 02:15:00 14.3 C 11.55 g/m*3 14.3 C 6.4 km/h
29 23-05-2020 02:20:00 14.2 C 11.48 g/m*3 14.2 C 6.4 km/h
30 23-05-2020 02:25:00 14.2 C 11.48 g/m*3 14.2 C 6.4 km/h
31 23-05-2020 02:30:00 14.2 C 11.48 g/m*3 14.2 C 6.4 km/h
32 23-05-2020 02:35:00 14.1 C 11.41 g/m*3 14.1 C 3.2 km/h
33 23-05-2020 02:40:00 14.1 C 11.41 g/m*3 14.1 C 1.6 km/h
34 23-05-2020 02:45:00 14 C 11.34 g/m*3 14 C 0 km/h
35 23-05-2020 02:50:00 13.9 C 11.39 g/m*3 13.9 C 4.8 km/h
36 23-05-2020 02:55:00 13.9 C 11.39 g/m*3 13.9 C 6.4 km/h
37 23-05-2020 03:00:00 13.9 C 11.39 g/m*3 13.9 C 4.8 km/h
38 23-05-2020 03:05:00 13.8 C 11.32 g/m*3 13.8 C 3.2 km/h
39 23-05-2020 03:10:00 13.8 C 11.32 g/m*3 13.8 C 4.8 km/h
40 23-05-2020 03:15:00 13.7 C 11.25 g/m*3 13.7 C 6.4 km/h
41 23-05-2020 03:20:00 13.7 C 11.25 g/m*3 13.7 C 8.1 km/h
42 23-05-2020 03:25:00 13.6 C 11.18 g/m*3 13.6 C 8.1 km/h
43 23-05-2020 03:30:00 13.6 C 11.18 g/m*3 13.6 C 0 km/h
44 23-05-2020 03:35:00 13.5 C 11.11 g/m*3 13.5 C 0 km/h
45 23-05-2020 03:40:00 13.5 C 11.11 g/m*3 13.5 C 4.8 km/h
46 23-05-2020 03:45:00 13.6 C 11.18 g/m*3 13.6 C 6.4 km/h
47 23-05-2020 03:50:00 13.6 C 11.18 g/m*3 13.6 C 4.8 km/h
48 23-05-2020 03:55:00 13.6 C 11.18 g/m*3 13.6 C 4.8 km/h
49 23-05-2020 04:00:00 13.6 C 11.3 g/m*3 13.6 C 4.8 km/h
50 23-05-2020 04:05:00 13.7 C 11.37 g/m*3 13.7 C 1.6 km/h
Sensor: Nr:Datum:Temp:Abs-Feuchte:Windchill:Wind:
Aussen-T/F 51 23-05-2020 04:10:00 13.7 C 11.37 g/m*3 13.7 C 3.2 km/h
52 23-05-2020 04:15:00 13.8 C 11.44 g/m*3 13.8 C 4.8 km/h
53 23-05-2020 04:20:00 13.8 C 11.44 g/m*3 13.8 C 1.6 km/h
54 23-05-2020 04:25:00 13.8 C 11.44 g/m*3 13.8 C 3.2 km/h
55 23-05-2020 04:30:00 13.8 C 11.44 g/m*3 13.8 C 4.8 km/h
56 23-05-2020 04:35:00 13.8 C 11.44 g/m*3 13.8 C 1.6 km/h
57 23-05-2020 04:40:00 13.8 C 11.44 g/m*3 13.8 C 4.8 km/h
58 23-05-2020 04:45:00 13.7 C 11.37 g/m*3 13.7 C 6.4 km/h
59 23-05-2020 04:50:00 13.4 C 11.04 g/m*3 13.4 C 11.3 km/h
60 23-05-2020 04:55:00 13.1 C 10.73 g/m*3 13.1 C 11.3 km/h
61 23-05-2020 05:00:00 12.7 C 10.46 g/m*3 12.7 C 12.9 km/h
62 23-05-2020 05:05:00 12.5 C 10.33 g/m*3 12.5 C 9.7 km/h
63 23-05-2020 05:10:00 12.3 C 10.21 g/m*3 12.3 C 8.1 km/h
64 23-05-2020 05:15:00 12.2 C 10.25 g/m*3 12.2 C 8.1 km/h
65 23-05-2020 05:20:00 12.1 C 10.19 g/m*3 12.1 C 8.1 km/h
66 23-05-2020 05:25:00 12 C 10.12 g/m*3 12 C 8.1 km/h
67 23-05-2020 05:30:00 11.9 C 10.06 g/m*3 11.9 C 9.7 km/h
68 23-05-2020 05:35:00 11.8 C 10 g/m*3 11.8 C 8.1 km/h
69 23-05-2020 05:40:00 11.8 C 10 g/m*3 11.8 C 8.1 km/h
70 23-05-2020 05:45:00 11.7 C 9.94 g/m*3 11.7 C 9.7 km/h
71 23-05-2020 05:50:00 11.6 C 9.87 g/m*3 11.6 C 6.4 km/h
72 23-05-2020 05:55:00 11.6 C 9.87 g/m*3 11.6 C 8.1 km/h
73 23-05-2020 06:00:00 11.4 C 9.75 g/m*3 11.4 C 8.1 km/h
74 23-05-2020 06:05:00 11.4 C 9.75 g/m*3 11.4 C 8.1 km/h
75 23-05-2020 06:10:00 11.4 C 9.75 g/m*3 11.4 C 8.1 km/h
Sensor: Nr:Datum:Temp:Abs-Feuchte:Windchill:Wind:
Aussen-T/F 76 23-05-2020 06:15:00 11.5 C 9.81 g/m*3 11.5 C 8.1 km/h
77 23-05-2020 06:20:00 11.6 C 9.98 g/m*3 11.6 C 6.4 km/h
78 23-05-2020 06:25:00 11.6 C 9.98 g/m*3 11.6 C 6.4 km/h
79 23-05-2020 06:30:00 11.6 C 9.98 g/m*3 11.6 C 4.8 km/h
80 23-05-2020 06:35:00 11.6 C 9.98 g/m*3 11.6 C 4.8 km/h
81 23-05-2020 06:40:00 11.7 C 10.04 g/m*3 11.7 C 4.8 km/h
82 23-05-2020 06:45:00 11.7 C 10.04 g/m*3 11.7 C 0 km/h
83 23-05-2020 06:50:00 11.8 C 10.1 g/m*3 11.8 C 1.6 km/h
84 23-05-2020 06:55:00 11.9 C 10.17 g/m*3 11.9 C 1.6 km/h
85 23-05-2020 07:00:00 12 C 10.23 g/m*3 12 C 3.2 km/h
86 23-05-2020 07:05:00 12 C 10.23 g/m*3 12 C 1.6 km/h
87 23-05-2020 07:10:00 12 C 10.23 g/m*3 12 C 4.8 km/h
88 23-05-2020 07:15:00 12.1 C 10.29 g/m*3 12.1 C 4.8 km/h
89 23-05-2020 07:20:00 12.2 C 10.36 g/m*3 12.2 C 3.2 km/h
90 23-05-2020 07:25:00 12.2 C 10.36 g/m*3 12.2 C 3.2 km/h
91 23-05-2020 07:30:00 12.3 C 10.42 g/m*3 12.3 C 4.8 km/h
92 23-05-2020 07:35:00 12.4 C 10.49 g/m*3 12.4 C 3.2 km/h
93 23-05-2020 07:40:00 12.6 C 10.62 g/m*3 12.6 C 1.6 km/h
94 23-05-2020 07:45:00 12.7 C 10.8 g/m*3 12.7 C 0 km/h
95 23-05-2020 07:50:00 12.8 C 10.87 g/m*3 12.8 C 0 km/h
96 23-05-2020 07:55:00 12.9 C 10.93 g/m*3 12.9 C 0 km/h
97 23-05-2020 08:00:00 12.9 C 10.82 g/m*3 12.9 C 3.2 km/h
98 23-05-2020 08:05:00 12.9 C 10.82 g/m*3 12.9 C 1.6 km/h
99 23-05-2020 08:10:00 12.9 C 10.82 g/m*3 12.9 C 1.6 km/h
100 23-05-2020 08:15:00 12.9 C 10.82 g/m*3 12.9 C 1.6 km/h
Sensor: Nr:Datum:Temp:Abs-Feuchte:Windchill:Wind:
Aussen-T/F 101 23-05-2020 08:20:00 12.9 C 10.82 g/m*3 12.9 C 0 km/h
102 23-05-2020 08:25:00 13.1 C 10.95 g/m*3 13.1 C 0 km/h
103 23-05-2020 08:30:00 13.2 C 11.14 g/m*3 13.2 C 1.6 km/h
104 23-05-2020 08:35:00 13.2 C 11.02 g/m*3 13.2 C 3.2 km/h
105 23-05-2020 08:40:00 13.2 C 11.02 g/m*3 13.2 C 1.6 km/h
106 23-05-2020 08:45:00 13.2 C 11.02 g/m*3 13.2 C 1.6 km/h
107 23-05-2020 08:50:00 13.2 C 11.02 g/m*3 13.2 C 0 km/h
108 23-05-2020 08:55:00 13.2 C 11.02 g/m*3 13.2 C 3.2 km/h
109 23-05-2020 09:00:00 13.3 C 11.09 g/m*3 13.3 C 3.2 km/h
110 23-05-2020 09:05:00 13.2 C 10.91 g/m*3 13.2 C 6.4 km/h
111 23-05-2020 09:10:00 13.1 C 10.84 g/m*3 13.1 C 1.6 km/h
112 23-05-2020 09:15:00 13.1 C 10.84 g/m*3 13.1 C 3.2 km/h
113 23-05-2020 09:20:00 12.9 C 10.71 g/m*3 12.9 C 4.8 km/h
114 23-05-2020 09:25:00 12.8 C 10.64 g/m*3 12.8 C 1.6 km/h
115 23-05-2020 09:30:00 12.8 C 10.64 g/m*3 12.8 C 3.2 km/h
116 23-05-2020 09:35:00 12.8 C 10.64 g/m*3 12.8 C 1.6 km/h
117 23-05-2020 09:40:00 12.9 C 10.71 g/m*3 12.9 C 11.3 km/h
118 23-05-2020 09:45:00 12.9 C 10.71 g/m*3 12.9 C 3.2 km/h
119 23-05-2020 09:50:00 13 C 10.77 g/m*3 13 C 4.8 km/h
120 23-05-2020 09:55:00 12.9 C 10.59 g/m*3 12.9 C 1.6 km/h
121 23-05-2020 10:00:00 12.9 C 10.59 g/m*3 12.9 C 4.8 km/h
122 23-05-2020 10:05:00 12.9 C 10.59 g/m*3 12.9 C 4.8 km/h
123 23-05-2020 10:10:00 12.9 C 10.71 g/m*3 12.9 C 3.2 km/h
124 23-05-2020 10:15:00 13 C 10.77 g/m*3 13 C 1.6 km/h
125 23-05-2020 10:20:00 13.1 C 10.84 g/m*3 13.1 C 1.6 km/h
Sensor: Nr:Datum:Temp:Abs-Feuchte:Windchill:Wind:
Aussen-T/F 126 23-05-2020 10:25:00 13 C 10.66 g/m*3 13 C 4.8 km/h
127 23-05-2020 10:30:00 12.7 C 10.35 g/m*3 12.7 C 9.7 km/h
128 23-05-2020 10:35:00 12.3 C 9.77 g/m*3 12.3 C 6.4 km/h
129 23-05-2020 10:40:00 12.1 C 9.54 g/m*3 12.1 C 20.9 km/h
130 23-05-2020 10:45:00 11.8 C 8.84 g/m*3 11.8 C 20.9 km/h
131 23-05-2020 10:50:00 11.7 C 8.89 g/m*3 11.7 C 16.1 km/h
132 23-05-2020 10:55:00 11.6 C 9.15 g/m*3 11.6 C 3.2 km/h
133 23-05-2020 11:00:00 11.6 C 9.35 g/m*3 11.6 C 9.7 km/h
134 23-05-2020 11:05:00 11.6 C 9.46 g/m*3 11.6 C 8.1 km/h
135 23-05-2020 11:10:00 11.5 C 9.4 g/m*3 11.5 C 11.3 km/h
136 23-05-2020 11:15:00 11.5 C 9.5 g/m*3 11.5 C 9.7 km/h
137 23-05-2020 11:20:00 11.6 C 9.56 g/m*3 11.6 C 8.1 km/h
138 23-05-2020 11:25:00 11.8 C 9.79 g/m*3 11.8 C 6.4 km/h
139 23-05-2020 11:30:00 11.9 C 9.85 g/m*3 11.9 C 6.4 km/h
140 23-05-2020 11:35:00 12.1 C 9.87 g/m*3 12.1 C 11.3 km/h
141 23-05-2020 11:40:00 12.1 C 9.97 g/m*3 12.1 C 6.4 km/h
142 23-05-2020 11:45:00 12.3 C 10.1 g/m*3 12.3 C 4.8 km/h
143 23-05-2020 11:50:00 12.4 C 10.16 g/m*3 12.4 C 4.8 km/h
144 23-05-2020 11:55:00 12.3 C 9.88 g/m*3 12.3 C 3.2 km/h
145 23-05-2020 12:00:00 12.4 C 9.94 g/m*3 12.4 C 3.2 km/h
146 23-05-2020 12:05:00 12.4 C 9.83 g/m*3 12.4 C 6.4 km/h
147 23-05-2020 12:10:00 12.3 C 9.66 g/m*3 12.3 C 8.1 km/h
148 23-05-2020 12:15:00 12.3 C 9.77 g/m*3 12.3 C 8.1 km/h
149 23-05-2020 12:20:00 12.3 C 9.77 g/m*3 12.3 C 6.4 km/h
150 23-05-2020 12:25:00 12.3 C 9.66 g/m*3 12.3 C 4.8 km/h
Sensor: Nr:Datum:Temp:Abs-Feuchte:Windchill:Wind:
Aussen-T/F 151 23-05-2020 12:30:00 12.3 C 9.66 g/m*3 12.3 C 9.7 km/h
152 23-05-2020 12:35:00 12.3 C 9.56 g/m*3 12.3 C 11.3 km/h
153 23-05-2020 12:40:00 12.3 C 9.56 g/m*3 12.3 C 11.3 km/h
154 23-05-2020 12:45:00 12.3 C 9.66 g/m*3 12.3 C 8.1 km/h
155 23-05-2020 12:50:00 12.3 C 9.77 g/m*3 12.3 C 6.4 km/h
156 23-05-2020 12:55:00 12.4 C 9.83 g/m*3 12.4 C 6.4 km/h
157 23-05-2020 13:00:00 12.4 C 9.83 g/m*3 12.4 C 6.4 km/h
158 23-05-2020 13:05:00 12.5 C 9.89 g/m*3 12.5 C 3.2 km/h
159 23-05-2020 13:10:00 12.6 C 9.85 g/m*3 12.6 C 9.7 km/h
160 23-05-2020 13:15:00 12.7 C 9.91 g/m*3 12.7 C 9.7 km/h
161 23-05-2020 13:20:00 12.8 C 9.86 g/m*3 12.8 C 12.9 km/h
162 23-05-2020 13:25:00 12.9 C 9.81 g/m*3 12.9 C 8.1 km/h
163 23-05-2020 13:30:00 13 C 9.87 g/m*3 13 C 8.1 km/h
164 23-05-2020 13:35:00 12.9 C 9.58 g/m*3 12.9 C 14.5 km/h
165 23-05-2020 13:40:00 13.1 C 9.81 g/m*3 13.1 C 6.4 km/h
166 23-05-2020 13:45:00 13.3 C 10.05 g/m*3 13.3 C 4.8 km/h
167 23-05-2020 13:50:00 13.4 C 10.11 g/m*3 13.4 C 8.1 km/h
168 23-05-2020 13:55:00 13.4 C 10 g/m*3 13.4 C 11.3 km/h
169 23-05-2020 14:00:00 13.3 C 9.7 g/m*3 13.3 C 11.3 km/h
170 23-05-2020 14:05:00 13.3 C 9.82 g/m*3 13.3 C 9.7 km/h
171 23-05-2020 14:10:00 13.3 C 9.7 g/m*3 13.3 C 12.9 km/h
172 23-05-2020 14:15:00 13.3 C 9.82 g/m*3 13.3 C 8.1 km/h
173 23-05-2020 14:20:00 13.4 C 9.65 g/m*3 13.4 C 12.9 km/h
174 23-05-2020 14:25:00 13.5 C 9.83 g/m*3 13.5 C 12.9 km/h
175 23-05-2020 14:30:00 13.7 C 10.07 g/m*3 13.7 C 6.4 km/h
Sensor: Nr:Datum:Temp:Abs-Feuchte:Windchill:Wind:
Aussen-T/F 176 23-05-2020 14:35:00 14 C 10.13 g/m*3 14 C 11.3 km/h
177 23-05-2020 14:40:00 14.1 C 9.95 g/m*3 14.1 C 12.9 km/h
178 23-05-2020 14:45:00 14.2 C 10.01 g/m*3 14.2 C 12.9 km/h
179 23-05-2020 14:50:00 14.2 C 10.01 g/m*3 14.2 C 17.7 km/h
180 23-05-2020 14:55:00 14.3 C 10.07 g/m*3 14.3 C 12.9 km/h
181 23-05-2020 15:00:00 14.4 C 10.14 g/m*3 14.4 C 11.3 km/h
182 23-05-2020 15:05:00 14.6 C 10.14 g/m*3 14.6 C 11.3 km/h
183 23-05-2020 15:10:00 14.7 C 10.07 g/m*3 14.7 C 14.5 km/h
184 23-05-2020 15:15:00 14.7 C 9.95 g/m*3 14.7 C 14.5 km/h
185 23-05-2020 15:20:00 14.9 C 10.07 g/m*3 14.9 C 20.9 km/h
186 23-05-2020 15:25:00 15 C 10 g/m*3 15 C 12.9 km/h
187 23-05-2020 15:30:00 15 C 10 g/m*3 15 C 17.7 km/h
188 23-05-2020 15:35:00 15 C 10.13 g/m*3 15 C 12.9 km/h
189 23-05-2020 15:40:00 15.1 C 9.93 g/m*3 15.1 C 12.9 km/h
190 23-05-2020 15:45:00 15.1 C 9.8 g/m*3 15.1 C 14.5 km/h
191 23-05-2020 15:50:00 15.3 C 10.06 g/m*3 15.3 C 12.9 km/h
192 23-05-2020 15:55:00 15.3 C 9.92 g/m*3 15.3 C 14.5 km/h
193 23-05-2020 16:00:00 15.4 C 9.85 g/m*3 15.4 C 11.3 km/h
194 23-05-2020 16:05:00 15.7 C 10.03 g/m*3 15.7 C 11.3 km/h
195 23-05-2020 16:10:00 15.8 C 9.96 g/m*3 15.8 C 14.5 km/h
196 23-05-2020 16:15:00 15.8 C 9.96 g/m*3 15.8 C 9.7 km/h
197 23-05-2020 16:20:00 15.8 C 9.69 g/m*3 15.8 C 17.7 km/h
198 23-05-2020 16:25:00 15.9 C 10.02 g/m*3 15.9 C 9.7 km/h
199 23-05-2020 16:30:00 16 C 9.54 g/m*3 16 C 12.9 km/h
200 23-05-2020 16:35:00 16.1 C 9.46 g/m*3 16.1 C 6.4 km/h
Sensor: Nr:Datum:Temp:Abs-Feuchte:Windchill:Wind:
Aussen-T/F 201 23-05-2020 16:40:00 16.2 C 9.79 g/m*3 16.2 C 11.3 km/h
202 23-05-2020 16:45:00 16.3 C 9.85 g/m*3 16.3 C 9.7 km/h
203 23-05-2020 16:50:00 16.3 C 9.99 g/m*3 16.3 C 11.3 km/h
204 23-05-2020 16:55:00 16.2 C 9.79 g/m*3 16.2 C 11.3 km/h
205 23-05-2020 17:00:00 16.2 C 9.65 g/m*3 16.2 C 14.5 km/h
206 23-05-2020 17:05:00 16.1 C 9.87 g/m*3 16.1 C 12.9 km/h
207 23-05-2020 17:10:00 15.8 C 9.83 g/m*3 15.8 C 12.9 km/h
208 23-05-2020 17:15:00 15.8 C 9.83 g/m*3 15.8 C 8.1 km/h
209 23-05-2020 17:20:00 15.8 C 9.83 g/m*3 15.8 C 14.5 km/h
210 23-05-2020 17:25:00 15.7 C 9.9 g/m*3 15.7 C 11.3 km/h
211 23-05-2020 17:30:00 15.4 C 9.72 g/m*3 15.4 C 9.7 km/h
212 23-05-2020 17:35:00 15.4 C 10.12 g/m*3 15.4 C 17.7 km/h
213 23-05-2020 17:40:00 15.4 C 10.38 g/m*3 15.4 C 16.1 km/h
214 23-05-2020 17:45:00 15.6 C 10.24 g/m*3 15.6 C 11.3 km/h
215 23-05-2020 17:50:00 16 C 10.49 g/m*3 16 C 11.3 km/h
216 23-05-2020 17:55:00 16.6 C 10.74 g/m*3 16.6 C 11.3 km/h
217 23-05-2020 18:00:00 16.7 C 10.23 g/m*3 16.7 C 9.7 km/h
218 23-05-2020 18:05:00 16.8 C 10.44 g/m*3 16.8 C 11.3 km/h
219 23-05-2020 18:10:00 16.9 C 10.36 g/m*3 16.9 C 9.7 km/h
220 23-05-2020 18:15:00 16.9 C 10.36 g/m*3 16.9 C 14.5 km/h
221 23-05-2020 18:20:00 16.4 C 9.91 g/m*3 16.4 C 16.1 km/h
222 23-05-2020 18:25:00 15.9 C 9.75 g/m*3 15.9 C 16.1 km/h
223 23-05-2020 18:30:00 15.6 C 9.84 g/m*3 15.6 C 16.1 km/h
224 23-05-2020 18:35:00 15.3 C 9.92 g/m*3 15.3 C 9.7 km/h
225 23-05-2020 18:40:00 15.2 C 10.38 g/m*3 15.2 C 12.9 km/h
Sensor: Nr:Datum:Temp:Abs-Feuchte:Windchill:Wind:
Aussen-T/F 226 23-05-2020 18:45:00 15.2 C 10.64 g/m*3 15.2 C 4.8 km/h
227 23-05-2020 18:50:00 15.1 C 10.19 g/m*3 15.1 C 11.3 km/h
228 23-05-2020 18:55:00 15.1 C 10.06 g/m*3 15.1 C 8.1 km/h
229 23-05-2020 19:00:00 15.7 C 10.17 g/m*3 15.7 C 8.1 km/h
230 23-05-2020 19:05:00 15.9 C 10.02 g/m*3 15.9 C 16.1 km/h
231 23-05-2020 19:10:00 16.2 C 10.2 g/m*3 16.2 C 12.9 km/h
232 23-05-2020 19:15:00 16.1 C 10.14 g/m*3 16.1 C 14.5 km/h
233 23-05-2020 19:20:00 15.6 C 9.71 g/m*3 15.6 C 14.5 km/h
234 23-05-2020 19:25:00 15.2 C 9.86 g/m*3 15.2 C 11.3 km/h
235 23-05-2020 19:30:00 15 C 9.75 g/m*3 15 C 9.7 km/h
236 23-05-2020 19:35:00 15 C 10 g/m*3 15 C 8.1 km/h
237 23-05-2020 19:40:00 15 C 9.87 g/m*3 15 C 8.1 km/h
238 23-05-2020 19:45:00 14.9 C 9.81 g/m*3 14.9 C 9.7 km/h
239 23-05-2020 19:50:00 15.1 C 9.93 g/m*3 15.1 C 11.3 km/h
240 23-05-2020 19:55:00 15.2 C 9.99 g/m*3 15.2 C 8.1 km/h
241 23-05-2020 20:00:00 15.3 C 9.92 g/m*3 15.3 C 9.7 km/h
242 23-05-2020 20:05:00 15.2 C 9.86 g/m*3 15.2 C 9.7 km/h
243 23-05-2020 20:10:00 15 C 9.75 g/m*3 15 C 11.3 km/h
244 23-05-2020 20:15:00 14.8 C 9.75 g/m*3 14.8 C 12.9 km/h
245 23-05-2020 20:20:00 14.8 C 10.01 g/m*3 14.8 C 6.4 km/h
246 23-05-2020 20:25:00 14.7 C 9.82 g/m*3 14.7 C 9.7 km/h
247 23-05-2020 20:30:00 14.6 C 9.89 g/m*3 14.6 C 4.8 km/h
248 23-05-2020 20:35:00 14.6 C 9.89 g/m*3 14.6 C 9.7 km/h
249 23-05-2020 20:40:00 14.4 C 9.77 g/m*3 14.4 C 11.3 km/h
250 23-05-2020 20:45:00 14.3 C 9.71 g/m*3 14.3 C 12.9 km/h
Sensor: Nr:Datum:Temp:Abs-Feuchte:Windchill:Wind:
Aussen-T/F 251 23-05-2020 20:50:00 14.2 C 9.65 g/m*3 14.2 C 11.3 km/h
252 23-05-2020 20:55:00 14.1 C 9.71 g/m*3 14.1 C 14.5 km/h
253 23-05-2020 21:00:00 13.9 C 9.59 g/m*3 13.9 C 8.1 km/h
254 23-05-2020 21:05:00 13.8 C 9.53 g/m*3 13.8 C 9.7 km/h
255 23-05-2020 21:10:00 13.7 C 9.59 g/m*3 13.7 C 4.8 km/h
256 23-05-2020 21:15:00 13.5 C 9.59 g/m*3 13.5 C 4.8 km/h
257 23-05-2020 21:20:00 13.3 C 9.36 g/m*3 13.3 C 8.1 km/h
258 23-05-2020 21:25:00 13.2 C 9.3 g/m*3 13.2 C 14.5 km/h
259 23-05-2020 21:30:00 13.2 C 9.3 g/m*3 13.2 C 12.9 km/h
260 23-05-2020 21:35:00 13.1 C 9.24 g/m*3 13.1 C 11.3 km/h
261 23-05-2020 21:40:00 13 C 9.19 g/m*3 13 C 12.9 km/h
262 23-05-2020 21:45:00 12.9 C 9.24 g/m*3 12.9 C 6.4 km/h
263 23-05-2020 21:50:00 12.7 C 9.13 g/m*3 12.7 C 6.4 km/h
264 23-05-2020 21:55:00 12.6 C 9.18 g/m*3 12.6 C 1.6 km/h
265 23-05-2020 22:00:00 12.3 C 9.01 g/m*3 12.3 C 9.7 km/h
266 23-05-2020 22:05:00 12.3 C 9.01 g/m*3 12.3 C 8.1 km/h
267 23-05-2020 22:10:00 12.2 C 9.06 g/m*3 12.2 C 9.7 km/h
268 23-05-2020 22:15:00 12.2 C 9.06 g/m*3 12.2 C 9.7 km/h
269 23-05-2020 22:20:00 12.1 C 9.01 g/m*3 12.1 C 4.8 km/h
270 23-05-2020 22:25:00 12 C 8.95 g/m*3 12 C 6.4 km/h
271 23-05-2020 22:30:00 11.9 C 9 g/m*3 11.9 C 3.2 km/h
272 23-05-2020 22:35:00 11.8 C 8.95 g/m*3 11.8 C 8.1 km/h
273 23-05-2020 22:40:00 11.7 C 8.89 g/m*3 11.7 C 6.4 km/h
274 23-05-2020 22:45:00 11.6 C 8.94 g/m*3 11.6 C 3.2 km/h
275 23-05-2020 22:50:00 11.5 C 8.88 g/m*3 11.5 C 6.4 km/h
Sensor: Nr:Datum:Temp:Abs-Feuchte:Windchill:Wind:
Aussen-T/F 276 23-05-2020 22:55:00 11.4 C 8.83 g/m*3 11.4 C 6.4 km/h
277 23-05-2020 23:00:00 11.3 C 8.77 g/m*3 11.3 C 6.4 km/h
278 23-05-2020 23:05:00 11.3 C 8.77 g/m*3 11.3 C 8.1 km/h
279 23-05-2020 23:10:00 11.3 C 8.87 g/m*3 11.3 C 9.7 km/h
280 23-05-2020 23:15:00 11.2 C 8.82 g/m*3 11.2 C 3.2 km/h
281 23-05-2020 23:20:00 11.2 C 8.82 g/m*3 11.2 C 1.6 km/h
282 23-05-2020 23:25:00 11.1 C 8.76 g/m*3 11.1 C 1.6 km/h
283 23-05-2020 23:30:00 10.9 C 8.75 g/m*3 10.41 C 6.4 km/h
284 23-05-2020 23:35:00 10.9 C 8.75 g/m*3 10.04 C 8.1 km/h
285 23-05-2020 23:40:00 10.9 C 8.75 g/m*3 10.04 C 8.1 km/h
286 23-05-2020 23:45:00 10.9 C 8.75 g/m*3 10.9 C 3.2 km/h
287 23-05-2020 23:50:00 10.8 C 8.7 g/m*3 10.8 C 3.2 km/h
288 23-05-2020 23:55:00 10.8 C 8.8 g/m*3 10.8 C 3.2 km/h

Legende:
   Min
   Max


Maximal/Minimal-Werte vom 23.05.2020 - 23.05.2020

Sensor Min Max Avg
Temp
(Aussen-T/F)
10.8 °C
23-05-2020  23:50:00
16.9 °C
23-05-2020  18:10:00
13.69 °C
Abs-Feuchte
(Aussen-T/F)
8.7 g/m*3
23-05-2020  23:50:00
13.58 g/m*3
23-05-2020  00:15:00
10.33 g/m*3
Windchill
(Aussen-T/F)
10.04 C
23-05-2020  23:35:00
16.9 C
23-05-2020  18:10:00
13.64 C

Die Daten stammen von einer Davis Vantage Pro 2 Wetter-Station und werden unter Linux mit der Software wview2wettercgi und aufbereitet. Alle Angaben erfolgen ohne Gewähr für ihre Vollständigkeit oder Richtigkeit.
Kontakt: Rainer Krienke krienke@uni-koblenz.de . Meine Webseiten an der Uni Koblenz oder privat.
Version: $Revision: 0.78 $